| time (UTC) | temp F | wind direction | speed MPH | gust MPH | rain 1hr in | rain 24hr in | rain mn in | humidity % | barometer mb |
| 20260831170423 | 78 | 344 | 2.0 | 6.0 | 0.00 | 0.00 | 0.00 | 86 | 1009.0 |
| 20260831165917 | 78 | 295 | 1.0 | 6.0 | 0.00 | 0.00 | 0.00 | 86 | 1008.9 |
| 20260831165418 | 78 | 340 | 2.0 | 6.0 | 0.00 | 0.00 | 0.00 | 87 | 1009.0 |
| 20260831164912 | 78 | 19 | 3.0 | 6.0 | 0.00 | 0.00 | 0.00 | 87 | 1009.0 |
| 20260831164514 | 77 | 349 | 2.0 | 5.0 | 0.00 | 0.00 | 0.00 | 88 | 1009.0 |
| 20260831163400 | 77 | 317 | 1.0 | 4.0 | 0.00 | 0.00 | 0.00 | 88 | 1008.9 |
| 20260831162901 | 77 | 329 | 2.0 | 6.0 | 0.00 | 0.00 | 0.00 | 89 | 1009.0 |
| 20260831162625 | 77 | 329 | 2.0 | 6.0 | 0.00 | 0.00 | 0.00 | 90 | 1008.9 |
| 20260831162110 | 77 | 330 | 3.0 | 8.0 | 0.00 | 0.00 | 0.00 | 91 | 1008.9 |
| 20260831161345 | 77 | 332 | 3.0 | 8.0 | 0.00 | 0.00 | 0.00 | 92 | 1009.0 |
| 20260831160845 | 77 | 31 | 3.0 | 9.0 | 0.00 | 0.00 | 0.00 | 92 | 1008.8 |
| 20260831160335 | 77 | 0 | 3.0 | 10.0 | 0.00 | 0.00 | 0.00 | 93 | 1008.9 |
| 20260831155829 | 77 | 307 | 3.0 | 10.0 | 0.00 | 0.00 | 0.00 | 94 | 1008.8 |
| 20260831155329 | 77 | 341 | 3.0 | 10.0 | 0.00 | 0.00 | 0.00 | 94 | 1008.7 |
| 20260831154826 | 77 | 311 | 3.0 | 10.0 | 0.00 | 0.00 | 0.00 | 95 | 1008.6 |
| 20260831154549 | 76 | 9 | 2.0 | 8.0 | 0.00 | 0.00 | 0.00 | 95 | 1008.5 |
| 20260831153813 | 76 | 34 | 3.0 | 8.0 | 0.00 | 0.00 | 0.00 | 95 | 1008.3 |
| 20260831153316 | 76 | 329 | 3.0 | 8.0 | 0.00 | 0.00 | 0.00 | 95 | 1008.2 |
| 20260831152812 | 76 | 340 | 4.0 | 8.0 | 0.00 | 0.00 | 0.00 | 95 | 1008.3 |
| 20260831152308 | 76 | 342 | 4.0 | 11.0 | 0.00 | 0.00 | 0.00 | 95 | 1008.2 |
| 20260831151805 | 76 | 273 | 3.0 | 11.0 | 0.00 | 0.00 | 0.00 | 95 | 1008.2 |
| 20260831151303 | 76 | 336 | 3.0 | 8.0 | 0.00 | 0.00 | 0.00 | 96 | 1008.0 |
| 20260831151258 | 76 | 265 | 2.0 | 8.0 | 0.00 | 0.00 | 0.00 | 96 | 1008.0 |
| 20260831150306 | 76 | 317 | 1.0 | 8.0 | 0.00 | 0.00 | 0.00 | 96 | 1008.0 |
| 20260831145803 | 76 | 318 | 1.0 | 4.0 | 0.00 | 0.00 | 0.00 | 96 | 1007.8 |
| 20260831145306 | 75 | 313 | 2.0 | 5.0 | 0.00 | 0.00 | 0.00 | 96 | 1007.7 |
| 20260831145020 | 75 | 318 | 2.0 | 6.0 | 0.00 | 0.00 | 0.00 | 96 | 1007.6 |
| 20260831144256 | 75 | 306 | 1.0 | 6.0 | 0.00 | 0.00 | 0.00 | 96 | 1007.4 |
| 20260831143753 | 75 | 5 | 1.0 | 8.0 | 0.00 | 0.00 | 0.00 | 96 | 1007.4 |
| 20260831143250 | 75 | 323 | 1.0 | 8.0 | 0.00 | 0.00 | 0.00 | 96 | 1007.4 |
| 20260831142749 | 75 | 211 | 2.0 | 5.0 | 0.00 | 0.00 | 0.00 | 96 | 1007.4 |
| 20260831142248 | 75 | 319 | 2.0 | 6.0 | 0.00 | 0.00 | 0.00 | 96 | 1007.3 |
| 20260831141747 | 75 | 322 | 2.0 | 6.0 | 0.00 | 0.00 | 0.00 | 96 | 1007.2 |
| 20260831141246 | 75 | 315 | 1.0 | 7.0 | 0.00 | 0.00 | 0.00 | 96 | 1007.0 |
| 20260831140738 | 75 | 277 | 1.0 | 7.0 | 0.00 | 0.00 | 0.00 | 97 | 1007.0 |
| 20260831140237 | 74 | 227 | 1.0 | 6.0 | 0.00 | 0.00 | 0.00 | 96 | 1007.0 |
| 20260831135737 | 74 | 235 | 2.0 | 8.0 | 0.00 | 0.00 | 0.00 | 96 | 1007.0 |
| 20260831135226 | 74 | 273 | 2.0 | 8.0 | 0.00 | 0.00 | 0.00 | 97 | 1006.9 |
| 20260831134724 | 74 | 213 | 2.0 | 8.0 | 0.00 | 0.00 | 0.00 | 96 | 1006.8 |
| 20260831134223 | 73 | 220 | 2.0 | 8.0 | 0.00 | 0.00 | 0.00 | 96 | 1006.7 |
| 20260831133725 | 73 | 246 | 2.0 | 8.0 | 0.00 | 0.00 | 0.00 | 96 | 1006.6 |
| 20260831133225 | 73 | 256 | 2.0 | 5.0 | 0.00 | 0.00 | 0.00 | 97 | 1006.6 |
| 20260831132720 | 73 | 269 | 3.0 | 7.0 | 0.00 | 0.00 | 0.00 | 96 | 1006.7 |
| 20260831132219 | 73 | 259 | 3.0 | 7.0 | 0.00 | 0.00 | 0.00 | 96 | 1006.6 |
| 20260831131720 | 73 | 222 | 1.0 | 4.0 | 0.00 | 0.00 | 0.00 | 97 | 1006.6 |
| 20260831131420 | 72 | 232 | 2.0 | 4.0 | 0.00 | 0.00 | 0.00 | 96 | 1006.6 |
| 20260831131129 | 72 | 185 | 2.0 | 4.0 | 0.00 | 0.00 | 0.00 | 97 | 1006.6 |
| 20260831130147 | 72 | 184 | 1.0 | 4.0 | 0.00 | 0.00 | 0.00 | 96 | 1006.5 |
| 20260831125907 | 71 | 177 | 1.0 | 4.0 | 0.00 | 0.00 | 0.00 | 97 | 1006.5 |
| 20260831125134 | 71 | 163 | 1.0 | 4.0 | 0.00 | 0.00 | 0.00 | 96 | 1006.4 |
| 20260831124854 | 70 | 148 | 1.0 | 4.0 | 0.00 | 0.00 | 0.00 | 96 | 1006.4 |
| 20260831124102 | 70 | 144 | 1.0 | 3.0 | 0.00 | 0.00 | 0.00 | 96 | 1006.4 |
| 20260831123555 | 70 | 144 | 0.0 | 3.0 | 0.00 | 0.00 | 0.00 | 96 | 1006.3 |
| 20260831123057 | 69 | 144 | 0.0 | 2.0 | 0.00 | 0.00 | 0.00 | 96 | 1006.3 |
| 20260831122559 | 69 | 144 | 0.0 | 2.0 | 0.00 | 0.00 | 0.00 | 96 | 1006.2 |
| 20260831122311 | 69 | 144 | 0.0 | 2.0 | 0.00 | 0.00 | 0.00 | 96 | 1006.0 |
| 20260831121538 | 69 | 144 | 0.0 | 1.0 | 0.00 | 0.00 | 0.00 | 96 | 1005.9 |
| 20260831121302 | 69 | 144 | 0.0 | 1.0 | 0.00 | 0.00 | 0.00 | 96 | 1005.7 |
| 20260831120535 | 69 | 144 | 0.0 | 1.0 | 0.00 | 0.00 | 0.00 | 96 | 1005.7 |
| 20260831120033 | 69 | 144 | 0.0 | 1.0 | 0.00 | 0.00 | 0.00 | 96 | 1005.7 |
| 20260831115535 | 69 | 144 | 0.0 | 0.0 | 0.00 | 0.00 | 0.00 | 96 | 1005.6 |
| 20260831115514 | 69 | 144 | 0.0 | 0.0 | 0.00 | 0.00 | 0.00 | 96 | 1005.6 |
| 20260831114523 | 69 | 144 | 0.0 | 0.0 | 0.00 | 0.00 | 0.00 | 96 | 1005.7 |
| 20260831114007 | 69 | 144 | 0.0 | 0.0 | 0.00 | 0.00 | 0.00 | 96 | 1005.6 |
| 20260831113506 | 69 | 144 | 0.0 | 0.0 | 0.00 | 0.00 | 0.00 | 95 | 1005.6 |
| 20260831112939 | 69 | 144 | 0.0 | 0.0 | 0.00 | 0.00 | 0.00 | 95 | 1005.4 |
| 20260831112650 | 69 | 144 | 0.0 | 0.0 | 0.00 | 0.00 | 0.00 | 95 | 1005.4 |
| 20260831111916 | 69 | 144 | 0.0 | 0.0 | 0.00 | 0.00 | 0.00 | 95 | 1005.4 |
| 20260831111409 | 70 | 144 | 0.0 | 0.0 | 0.00 | 0.00 | 0.00 | 96 | 1005.3 |
| 20260831110910 | 70 | 144 | 0.0 | 0.0 | 0.00 | 0.00 | 0.00 | 96 | 1005.4 |
| 20260831110409 | 70 | 144 | 0.0 | 0.0 | 0.00 | 0.00 | 0.00 | 96 | 1005.3 |
| 20260831105858 | 70 | 144 | 0.0 | 1.0 | 0.00 | 0.00 | 0.00 | 96 | 1005.3 |
| 20260831105356 | 70 | 144 | 0.0 | 1.0 | 0.00 | 0.00 | 0.00 | 96 | 1005.2 |
| 20260831104857 | 70 | 144 | 0.0 | 2.0 | 0.00 | 0.00 | 0.00 | 96 | 1005.5 |
| 20260831104353 | 70 | 144 | 0.0 | 2.0 | 0.00 | 0.00 | 0.00 | 96 | 1005.5 |
| 20260831103853 | 70 | 143 | 0.0 | 1.0 | 0.00 | 0.00 | 0.00 | 95 | 1005.3 |
| 20260831103347 | 70 | 143 | 0.0 | 1.0 | 0.00 | 0.00 | 0.00 | 95 | 1005.3 |
| 20260831102844 | 70 | 143 | 0.0 | 1.0 | 0.00 | 0.00 | 0.00 | 95 | 1005.2 |
| 20260831102341 | 70 | 143 | 0.0 | 1.0 | 0.00 | 0.00 | 0.00 | 95 | 1005.2 |
| 20260831101821 | 70 | 143 | 0.0 | 1.0 | 0.00 | 0.00 | 0.00 | 95 | 1005.2 |
| 20260831101237 | 70 | 143 | 0.0 | 1.0 | 0.00 | 0.00 | 0.00 | 95 | 1005.1 |
| 20260831101003 | 70 | 143 | 0.0 | 2.0 | 0.00 | 0.00 | 0.00 | 95 | 1005.1 |
| 20260831100214 | 70 | 143 | 1.0 | 2.0 | 0.00 | 0.00 | 0.00 | 95 | 1005.0 |
| 20260831095651 | 70 | 143 | 0.0 | 2.0 | 0.00 | 0.00 | 0.00 | 95 | 1005.0 |
| 20260831095141 | 70 | 143 | 0.0 | 1.0 | 0.00 | 0.00 | 0.00 | 95 | 1004.8 |
| 20260831094643 | 70 | 143 | 0.0 | 1.0 | 0.00 | 0.00 | 0.00 | 95 | 1004.9 |
| 20260831094137 | 70 | 143 | 0.0 | 1.0 | 0.00 | 0.00 | 0.00 | 95 | 1004.9 |
| 20260831093859 | 70 | 143 | 0.0 | 0.0 | 0.00 | 0.00 | 0.00 | 95 | 1004.8 |
| 20260831093129 | 70 | 143 | 0.0 | 0.0 | 0.00 | 0.00 | 0.00 | 95 | 1004.9 |
| 20260831092615 | 70 | 143 | 0.0 | 1.0 | 0.00 | 0.00 | 0.00 | 95 | 1004.9 |
| 20260831092109 | 70 | 143 | 0.0 | 1.0 | 0.00 | 0.00 | 0.00 | 96 | 1004.9 |
| 20260831091600 | 70 | 144 | 0.0 | 1.0 | 0.00 | 0.00 | 0.00 | 95 | 1005.0 |
| 20260831091103 | 70 | 145 | 0.0 | 1.0 | 0.00 | 0.00 | 0.00 | 95 | 1005.2 |
| 20260831090557 | 70 | 159 | 0.0 | 1.0 | 0.00 | 0.00 | 0.00 | 95 | 1005.2 |
| 20260831090318 | 70 | 157 | 0.0 | 2.0 | 0.00 | 0.00 | 0.00 | 95 | 1005.2 |
| 20260831085751 | 69 | 157 | 0.0 | 2.0 | 0.00 | 0.00 | 0.00 | 95 | 1005.1 |
| 20260831085027 | 69 | 157 | 0.0 | 2.0 | 0.00 | 0.00 | 0.00 | 95 | 1004.9 |
| 20260831084518 | 69 | 157 | 0.0 | 2.0 | 0.00 | 0.00 | 0.00 | 95 | 1004.9 |
| 20260831084236 | 69 | 157 | 0.0 | 2.0 | 0.00 | 0.00 | 0.00 | 94 | 1004.8 |
| 20260831083735 | 69 | 157 | 1.0 | 2.0 | 0.00 | 0.00 | 0.00 | 93 | 1004.9 |
| 20260831083009 | 69 | 157 | 1.0 | 2.0 | 0.00 | 0.00 | 0.00 | 93 | 1004.9 |
| 20260831082455 | 69 | 157 | 0.0 | 1.0 | 0.00 | 0.00 | 0.00 | 92 | 1004.9 |
| 20260831081950 | 70 | 157 | 0.0 | 3.0 | 0.00 | 0.00 | 0.00 | 90 | 1004.8 |
| 20260831081439 | 72 | 157 | 0.0 | 3.0 | 0.00 | 0.00 | 0.00 | 90 | 1004.7 |
| 20260831080925 | 73 | 157 | 1.0 | 3.0 | 0.00 | 0.00 | 0.00 | 91 | 1004.7 |
| 20260831080420 | 73 | 157 | 1.0 | 3.0 | 0.00 | 0.00 | 0.00 | 91 | 1004.7 |
| 20260831080132 | 73 | 157 | 0.0 | 3.0 | 0.00 | 0.00 | 0.00 | 91 | 1004.7 |
| 20260831075633 | 73 | 157 | 0.0 | 3.0 | 0.00 | 0.00 | 0.00 | 90 | 1004.6 |
| 20260831074900 | 73 | 157 | 1.0 | 5.0 | 0.00 | 0.00 | 0.00 | 90 | 1004.8 |
| 20260831074402 | 73 | 158 | 1.0 | 5.0 | 0.00 | 0.00 | 0.00 | 90 | 1004.8 |
| 20260831073858 | 73 | 159 | 0.0 | 2.0 | 0.00 | 0.00 | 0.00 | 90 | 1004.7 |
| 20260831073608 | 73 | 159 | 1.0 | 4.0 | 0.00 | 0.00 | 0.00 | 90 | 1004.7 |
| 20260831072832 | 73 | 159 | 1.0 | 5.0 | 0.00 | 0.00 | 0.00 | 90 | 1004.9 |
| 20260831072555 | 73 | 159 | 0.0 | 5.0 | 0.00 | 0.00 | 0.00 | 90 | 1004.9 |
| 20260831071828 | 73 | 159 | 1.0 | 4.0 | 0.00 | 0.00 | 0.00 | 89 | 1005.0 |
| 20260831071323 | 73 | 159 | 0.0 | 5.0 | 0.00 | 0.00 | 0.00 | 90 | 1005.0 |
| 20260831071049 | 73 | 159 | 1.0 | 5.0 | 0.00 | 0.00 | 0.00 | 90 | 1005.1 |
| 20260831070313 | 73 | 159 | 0.0 | 5.0 | 0.00 | 0.00 | 0.00 | 89 | 1005.1 |
| 20260831065812 | 74 | 160 | 0.0 | 1.0 | 0.00 | 0.00 | 0.00 | 89 | 1005.0 |
| 20260831065310 | 74 | 160 | 0.0 | 1.0 | 0.00 | 0.00 | 0.00 | 89 | 1005.1 |
| 20260831065003 | 74 | 160 | 0.0 | 3.0 | 0.00 | 0.00 | 0.00 | 89 | 1005.1 |
| 20260831064237 | 74 | 160 | 0.0 | 3.0 | 0.00 | 0.00 | 0.00 | 89 | 1005.3 |
| 20260831063959 | 74 | 160 | 0.0 | 4.0 | 0.00 | 0.00 | 0.00 | 89 | 1005.2 |
| 20260831063213 | 74 | 160 | 0.0 | 4.0 | 0.00 | 0.00 | 0.00 | 89 | 1005.4 |
| 20260831062913 | 74 | 160 | 0.0 | 5.0 | 0.00 | 0.00 | 0.00 | 89 | 1005.5 |
| 20260831062132 | 74 | 161 | 0.0 | 5.0 | 0.00 | 0.00 | 0.00 | 89 | 1005.6 |
| 20260831061833 | 74 | 159 | 1.0 | 4.0 | 0.00 | 0.00 | 0.00 | 89 | 1005.5 |
| 20260831061105 | 74 | 159 | 1.0 | 4.0 | 0.00 | 0.00 | 0.00 | 89 | 1005.7 |
| 20260831060603 | 74 | 159 | 1.0 | 4.0 | 0.00 | 0.00 | 0.00 | 88 | 1005.5 |
| 20260831060056 | 74 | 158 | 0.0 | 3.0 | 0.00 | 0.00 | 0.00 | 88 | 1005.5 |
| 20260831055811 | 74 | 158 | 0.0 | 5.0 | 0.00 | 0.00 | 0.00 | 88 | 1005.5 |
| 20260831055054 | 74 | 158 | 1.0 | 5.0 | 0.00 | 0.00 | 0.00 | 88 | 1005.5 |
| 20260831054536 | 74 | 157 | 0.0 | 5.0 | 0.00 | 0.00 | 0.00 | 88 | 1005.5 |
| 20260831054031 | 74 | 148 | 0.0 | 2.0 | 0.00 | 0.00 | 0.00 | 88 | 1005.6 |
| 20260831053535 | 74 | 148 | 0.0 | 1.0 | 0.00 | 0.00 | 0.00 | 88 | 1005.7 |
| 20260831053244 | 74 | 148 | 0.0 | 1.0 | 0.00 | 0.00 | 0.00 | 88 | 1005.7 |
| 20260831052525 | 74 | 148 | 0.0 | 1.0 | 0.00 | 0.00 | 0.00 | 88 | 1005.8 |
| 20260831052013 | 74 | 148 | 0.0 | 0.0 | 0.00 | 0.00 | 0.00 | 87 | 1006.0 |
| 20260831051509 | 75 | 148 | 0.0 | 2.0 | 0.00 | 0.00 | 0.00 | 87 | 1006.0 |
| 20260831051011 | 75 | 148 | 0.0 | 5.0 | 0.00 | 0.00 | 0.00 | 87 | 1006.0 |
| 20260831050507 | 75 | 148 | 0.0 | 5.0 | 0.00 | 0.00 | 0.00 | 87 | 1006.1 |
| 20260831050008 | 75 | 148 | 0.0 | 2.0 | 0.00 | 0.00 | 0.00 | 87 | 1006.2 |
| 20260831045508 | 75 | 148 | 0.0 | 3.0 | 0.00 | 0.00 | 0.00 | 87 | 1006.2 |
| 20260831045005 | 75 | 148 | 1.0 | 6.0 | 0.00 | 0.00 | 0.00 | 87 | 1006.3 |
| 20260831044500 | 75 | 148 | 1.0 | 6.0 | 0.00 | 0.00 | 0.00 | 86 | 1006.4 |
| 20260831043956 | 75 | 147 | 2.0 | 6.0 | 0.00 | 0.00 | 0.00 | 86 | 1006.5 |
| 20260831043458 | 76 | 160 | 1.0 | 6.0 | 0.00 | 0.00 | 0.00 | 86 | 1006.5 |
| 20260831042951 | 75 | 150 | 1.0 | 7.0 | 0.00 | 0.00 | 0.00 | 86 | 1006.6 |
| 20260831042445 | 76 | 145 | 1.0 | 7.0 | 0.00 | 0.00 | 0.00 | 86 | 1006.4 |
| 20260831041941 | 76 | 119 | 0.0 | 2.0 | 0.00 | 0.00 | 0.00 | 86 | 1006.4 |
| 20260831041440 | 76 | 153 | 1.0 | 4.0 | 0.00 | 0.00 | 0.00 | 85 | 1006.4 |
| 20260831040932 | 76 | 155 | 1.0 | 6.0 | 0.00 | 0.00 | 0.00 | 85 | 1006.4 |
| 20260831040430 | 76 | 143 | 1.0 | 6.0 | 0.00 | 0.00 | 0.00 | 85 | 1006.5 |
| 20260831035920 | 76 | 157 | 2.0 | 7.0 | 0.00 | 0.00 | 0.00 | 85 | 1006.4 |
| 20260831035414 | 76 | 157 | 2.0 | 7.0 | 0.00 | 0.00 | 0.00 | 85 | 1006.3 |
| 20260831034914 | 77 | 146 | 1.0 | 7.0 | 0.00 | 0.00 | 0.00 | 84 | 1006.3 |
| 20260831034406 | 77 | 155 | 2.0 | 7.0 | 0.00 | 0.00 | 0.00 | 84 | 1006.2 |
| 20260831033908 | 77 | 146 | 2.0 | 8.0 | 0.00 | 0.00 | 0.00 | 84 | 1006.3 |
| 20260831033408 | 77 | 155 | 4.0 | 10.0 | 0.00 | 0.00 | 0.00 | 83 | 1006.3 |
| 20260831032858 | 77 | 125 | 5.0 | 10.0 | 0.00 | 0.00 | 0.00 | 83 | 1006.3 |
| 20260831032400 | 77 | 155 | 3.0 | 9.0 | 0.00 | 0.00 | 0.00 | 83 | 1006.4 |
| 20260831031858 | 78 | 162 | 3.0 | 9.0 | 0.00 | 0.00 | 0.00 | 83 | 1006.3 |
| 20260831031358 | 78 | 155 | 3.0 | 9.0 | 0.00 | 0.00 | 0.00 | 83 | 1006.3 |
| 20260831030900 | 78 | 134 | 3.0 | 10.0 | 0.00 | 0.00 | 0.00 | 82 | 1006.2 |
| 20260831030352 | 78 | 153 | 4.0 | 10.0 | 0.00 | 0.00 | 0.00 | 82 | 1006.2 |
| 20260831025853 | 78 | 149 | 3.0 | 10.0 | 0.00 | 0.00 | 0.00 | 82 | 1006.1 |
| 20260831025352 | 78 | 158 | 2.0 | 8.0 | 0.00 | 0.00 | 0.00 | 81 | 1006.1 |
| 20260831024852 | 78 | 155 | 2.0 | 8.0 | 0.00 | 0.00 | 0.00 | 81 | 1006.0 |
| 20260831024342 | 79 | 144 | 2.0 | 9.0 | 0.00 | 0.00 | 0.00 | 81 | 1006.0 |
| 20260831023836 | 79 | 171 | 3.0 | 11.0 | 0.00 | 0.00 | 0.00 | 80 | 1006.1 |
| 20260831023334 | 79 | 148 | 4.0 | 11.0 | 0.00 | 0.00 | 0.00 | 80 | 1006.1 |
| 20260831022831 | 79 | 160 | 4.0 | 11.0 | 0.00 | 0.00 | 0.00 | 80 | 1006.1 |
| 20260831022328 | 79 | 154 | 5.0 | 13.0 | 0.00 | 0.00 | 0.00 | 79 | 1006.2 |
| 20260831022046 | 79 | 147 | 5.0 | 17.0 | 0.00 | 0.00 | 0.00 | 79 | 1006.2 |
| 20260831021324 | 79 | 152 | 5.0 | 17.0 | 0.00 | 0.00 | 0.00 | 79 | 1006.1 |
| 20260831020824 | 79 | 135 | 6.0 | 19.0 | 0.00 | 0.00 | 0.00 | 79 | 1006.1 |
| 20260831020319 | 79 | 180 | 5.0 | 19.0 | 0.00 | 0.00 | 0.00 | 80 | 1005.9 |
| 20260831015818 | 79 | 177 | 3.0 | 12.0 | 0.00 | 0.00 | 0.00 | 82 | 1005.9 |
| 20260831015542 | 78 | 107 | 3.0 | 10.0 | 0.00 | 0.00 | 0.00 | 84 | 1005.8 |
| 20260831014811 | 78 | 155 | 2.0 | 10.0 | 0.00 | 0.00 | 0.00 | 85 | 1005.9 |
| 20260831014307 | 79 | 178 | 1.0 | 6.0 | 0.00 | 0.00 | 0.00 | 86 | 1005.8 |
| 20260831014032 | 79 | 114 | 0.0 | 1.0 | 0.00 | 0.00 | 0.00 | 86 | 1005.8 |
| 20260831013305 | 79 | 114 | 0.0 | 2.0 | 0.00 | 0.00 | 0.00 | 85 | 1005.7 |
| 20260831012803 | 79 | 114 | 0.0 | 2.0 | 0.00 | 0.00 | 0.00 | 85 | 1005.8 |
| 20260831012244 | 80 | 61 | 0.0 | 1.0 | 0.00 | 0.00 | 0.00 | 85 | 1005.8 |
| 20260831011742 | 80 | 61 | 0.0 | 1.0 | 0.00 | 0.00 | 0.00 | 84 | 1005.6 |
| 20260831011236 | 80 | 58 | 0.0 | 1.0 | 0.00 | 0.00 | 0.00 | 84 | 1005.5 |
| 20260831010955 | 80 | 57 | 0.0 | 1.0 | 0.00 | 0.00 | 0.00 | 84 | 1005.6 |
| 20260831010223 | 80 | 57 | 0.0 | 2.0 | 0.00 | 0.00 | 0.00 | 84 | 1005.5 |
| 20260831005721 | 80 | 58 | 0.0 | 2.0 | 0.00 | 0.00 | 0.00 | 84 | 1005.5 |
| 20260831005223 | 81 | 61 | 0.0 | 1.0 | 0.00 | 0.00 | 0.00 | 84 | 1005.5 |
| 20260831004935 | 81 | 61 | 0.0 | 1.0 | 0.00 | 0.00 | 0.00 | 84 | 1005.5 |
| 20260831004152 | 81 | 61 | 0.0 | 1.0 | 0.00 | 0.00 | 0.00 | 83 | 1005.4 |
| 20260831003633 | 81 | 61 | 0.0 | 1.0 | 0.00 | 0.00 | 0.00 | 83 | 1005.6 |
| 20260831003135 | 81 | 61 | 0.0 | 2.0 | 0.00 | 0.00 | 0.00 | 83 | 1005.7 |
| 20260831002830 | 82 | 61 | 1.0 | 3.0 | 0.00 | 0.00 | 0.00 | 83 | 1005.7 |
| 20260831002326 | 82 | 61 | 0.0 | 3.0 | 0.00 | 0.00 | 0.00 | 82 | 1005.7 |
| 20260831001831 | 82 | 96 | 0.0 | 1.0 | 0.00 | 0.00 | 0.00 | 83 | 1005.6 |
| 20260831001102 | 82 | 96 | 0.0 | 1.0 | 0.00 | 0.00 | 0.00 | 82 | 1005.6 |
| 20260831000601 | 82 | 96 | 0.0 | 3.0 | 0.00 | 0.00 | 0.00 | 82 | 1005.6 |
| 20260831000321 | 82 | 97 | 1.0 | 3.0 | 0.00 | 0.00 | 0.00 | 81 | 1005.6 |
| 20260830235559 | 83 | 275 | 0.0 | 2.0 | 0.00 | 0.00 | 0.00 | 82 | 1005.5 |
| 20260830235100 | 83 | 334 | 1.0 | 2.0 | 0.00 | 0.00 | 0.00 | 81 | 1005.5 |
| 20260830234601 | 83 | 341 | 1.0 | 3.0 | 0.00 | 0.00 | 0.00 | 81 | 1005.6 |
| 20260830234056 | 83 | 5 | 1.0 | 3.0 | 0.00 | 0.00 | 0.00 | 81 | 1005.5 |
| 20260830233557 | 83 | 355 | 1.0 | 2.0 | 0.00 | 0.00 | 0.00 | 80 | 1005.6 |
| 20260830233057 | 83 | 351 | 1.0 | 4.0 | 0.00 | 0.00 | 0.00 | 80 | 1005.7 |
| 20260830232550 | 83 | 355 | 1.0 | 4.0 | 0.00 | 0.00 | 0.00 | 79 | 1005.7 |
| 20260830232050 | 83 | 77 | 1.0 | 4.0 | 0.00 | 0.00 | 0.00 | 79 | 1005.6 |
| 20260830231542 | 83 | 77 | 1.0 | 4.0 | 0.00 | 0.00 | 0.00 | 79 | 1005.5 |
| 20260830231042 | 84 | 73 | 1.0 | 4.0 | 0.00 | 0.00 | 0.00 | 79 | 1005.7 |
| 20260830230532 | 84 | 23 | 2.0 | 4.0 | 0.00 | 0.00 | 0.00 | 78 | 1005.8 |
| 20260830230258 | 84 | 44 | 1.0 | 4.0 | 0.00 | 0.00 | 0.00 | 78 | 1005.6 |
| 20260830225756 | 84 | 53 | 1.0 | 6.0 | 0.00 | 0.00 | 0.00 | 77 | 1005.6 |
| 20260830225030 | 85 | 58 | 1.0 | 6.0 | 0.00 | 0.00 | 0.00 | 76 | 1005.6 |
| 20260830224531 | 85 | 32 | 1.0 | 4.0 | 0.00 | 0.00 | 0.00 | 77 | 1005.6 |
| 20260830224334 | 85 | 5 | 1.0 | 3.0 | 0.00 | 0.00 | 0.00 | 77 | 1005.6 |
| 20260830223014 | 85 | 75 | 1.0 | 4.0 | 0.00 | 0.00 | 0.00 | 78 | 1005.7 |
| 20260830222509 | 85 | 113 | 1.0 | 3.0 | 0.00 | 0.00 | 0.00 | 76 | 1005.6 |
| 20260830222006 | 85 | 33 | 1.0 | 5.0 | 0.00 | 0.00 | 0.00 | 76 | 1005.5 |
| 20260830221953 | 85 | 49 | 1.0 | 5.0 | 0.00 | 0.00 | 0.00 | 75 | 1005.7 |
| 20260830221221 | 85 | 59 | 1.0 | 4.0 | 0.00 | 0.00 | 0.00 | 75 | 1005.8 |
| 20260830220459 | 86 | 54 | 1.0 | 4.0 | 0.00 | 0.00 | 0.00 | 75 | 1005.8 |
| 20260830220001 | 85 | 186 | 1.0 | 3.0 | 0.00 | 0.00 | 0.00 | 75 | 1005.8 |
| 20260830215456 | 85 | 242 | 1.0 | 3.0 | 0.00 | 0.00 | 0.00 | 76 | 1005.8 |
| 20260830214956 | 85 | 168 | 1.0 | 4.0 | 0.00 | 0.00 | 0.00 | 76 | 1005.9 |
| 20260830214452 | 85 | 219 | 1.0 | 4.0 | 0.00 | 0.00 | 0.00 | 77 | 1005.9 |
| 20260830213947 | 84 | 223 | 1.0 | 5.0 | 0.00 | 0.00 | 0.00 | 78 | 1005.9 |
| 20260830213444 | 84 | 229 | 1.0 | 5.0 | 0.00 | 0.00 | 0.00 | 77 | 1006.1 |
| 20260830212941 | 84 | 82 | 1.0 | 4.0 | 0.00 | 0.00 | 0.00 | 79 | 1006.2 |
| 20260830212440 | 84 | 16 | 1.0 | 5.0 | 0.00 | 0.00 | 0.00 | 78 | 1006.1 |
| 20260830212201 | 83 | 135 | 2.0 | 7.0 | 0.00 | 0.00 | 0.00 | 79 | 1006.3 |
| 20260830211436 | 83 | 135 | 1.0 | 7.0 | 0.00 | 0.00 | 0.00 | 79 | 1006.3 |
| 20260830210926 | 83 | 116 | 1.0 | 3.0 | 0.00 | 0.00 | 0.00 | 78 | 1006.4 |
| 20260830210648 | 83 | 155 | 1.0 | 3.0 | 0.00 | 0.00 | 0.00 | 81 | 1006.3 |
| 20260830205922 | 82 | 182 | 1.0 | 5.0 | 0.00 | 0.00 | 0.00 | 81 | 1006.3 |
| 20260830205419 | 82 | 184 | 1.0 | 5.0 | 0.00 | 0.00 | 0.00 | 81 | 1006.3 |
| 20260830204918 | 82 | 136 | 1.0 | 4.0 | 0.00 | 0.00 | 0.00 | 81 | 1006.4 |
| 20260830204418 | 81 | 120 | 1.0 | 5.0 | 0.00 | 0.00 | 0.00 | 81 | 1006.3 |
| 20260830203913 | 81 | 109 | 1.0 | 6.0 | 0.00 | 0.00 | 0.00 | 81 | 1006.4 |
| 20260830203412 | 82 | 148 | 1.0 | 6.0 | 0.00 | 0.00 | 0.00 | 81 | 1006.3 |
| 20260830202911 | 82 | 148 | 2.0 | 6.0 | 0.00 | 0.00 | 0.00 | 80 | 1006.3 |
| 20260830202410 | 82 | 19 | 2.0 | 6.0 | 0.00 | 0.00 | 0.00 | 80 | 1006.2 |
| 20260830201908 | 82 | 182 | 1.0 | 4.0 | 0.00 | 0.00 | 0.00 | 80 | 1006.2 |
| 20260830201405 | 82 | 193 | 2.0 | 7.0 | 0.00 | 0.00 | 0.00 | 80 | 1006.2 |
| 20260830200904 | 82 | 157 | 2.0 | 7.0 | 0.00 | 0.00 | 0.00 | 79 | 1006.2 |
| 20260830200403 | 83 | 93 | 2.0 | 6.0 | 0.00 | 0.00 | 0.00 | 79 | 1006.2 |
| 20260830195903 | 83 | 113 | 2.0 | 6.0 | 0.00 | 0.00 | 0.00 | 79 | 1006.4 |
| 20260830195401 | 83 | 113 | 2.0 | 5.0 | 0.00 | 0.00 | 0.00 | 80 | 1006.3 |
| 20260830194901 | 82 | 155 | 2.0 | 9.0 | 0.00 | 0.00 | 0.00 | 82 | 1006.3 |
| 20260830194353 | 81 | 58 | 2.0 | 9.0 | 0.00 | 0.00 | 0.00 | 82 | 1006.2 |
| 20260830193849 | 80 | 47 | 2.0 | 4.0 | 0.00 | 0.00 | 0.00 | 83 | 1006.4 |
| 20260830193608 | 80 | 329 | 2.0 | 6.0 | 0.00 | 0.00 | 0.00 | 82 | 1006.8 |
| 20260830192846 | 80 | 79 | 2.0 | 6.0 | 0.00 | 0.00 | 0.00 | 83 | 1006.9 |
| 20260830192342 | 79 | 59 | 2.0 | 6.0 | 0.00 | 0.00 | 0.00 | 83 | 1007.0 |
| 20260830191839 | 79 | 267 | 2.0 | 6.0 | 0.00 | 0.00 | 0.00 | 84 | 1007.0 |
| 20260830191339 | 79 | 331 | 2.0 | 5.0 | 0.00 | 0.00 | 0.00 | 83 | 1007.1 |
| 20260830190839 | 79 | 29 | 1.0 | 5.0 | 0.00 | 0.00 | 0.00 | 84 | 1007.3 |
| 20260830190821 | 79 | 47 | 1.0 | 7.0 | 0.00 | 0.00 | 0.00 | 83 | 1007.3 |
| 20260830185825 | 79 | 349 | 1.0 | 7.0 | 0.00 | 0.00 | 0.00 | 84 | 1007.3 |
| 20260830185812 | 78 | 34 | 1.0 | 5.0 | 0.00 | 0.00 | 0.00 | 84 | 1007.3 |
| 20260830184816 | 78 | 132 | 2.0 | 9.0 | 0.00 | 0.00 | 0.00 | 84 | 1007.3 |
| 20260830184315 | 78 | 316 | 1.0 | 9.0 | 0.00 | 0.00 | 0.00 | 85 | 1007.3 |
| 20260830184037 | 77 | 149 | 1.0 | 4.0 | 0.00 | 0.00 | 0.00 | 85 | 1007.3 |
| 20260830183313 | 77 | 143 | 1.0 | 4.0 | 0.00 | 0.00 | 0.00 | 85 | 1007.7 |
| 20260830182814 | 77 | 115 | 1.0 | 8.0 | 0.00 | 0.00 | 0.00 | 85 | 1007.3 |
| 20260830182311 | 77 | 71 | 1.0 | 8.0 | 0.00 | 0.00 | 0.00 | 85 | 1007.2 |
| 20260830181811 | 77 | 219 | 1.0 | 4.0 | 0.00 | 0.00 | 0.00 | 85 | 1007.4 |
| 20260830181310 | 77 | 175 | 1.0 | 3.0 | 0.00 | 0.00 | 0.00 | 86 | 1007.7 |
| 20260830180812 | 76 | 150 | 1.0 | 3.0 | 0.00 | 0.00 | 0.00 | 86 | 1007.7 |
| 20260830180306 | 76 | 150 | 0.0 | 2.0 | 0.00 | 0.00 | 0.00 | 86 | 1007.7 |
| 20260830175802 | 76 | 150 | 0.0 | 2.0 | 0.00 | 0.00 | 0.00 | 86 | 1007.8 |
| 20260830175524 | 76 | 150 | 1.0 | 6.0 | 0.00 | 0.00 | 0.00 | 86 | 1007.8 |
| 20260830175007 | 76 | 109 | 1.0 | 6.0 | 0.00 | 0.00 | 0.00 | 86 | 1007.7 |
| 20260830174246 | 76 | 173 | 1.0 | 4.0 | 0.00 | 0.00 | 0.00 | 86 | 1007.8 |
| 20260830173743 | 76 | 174 | 1.0 | 4.0 | 0.00 | 0.00 | 0.00 | 86 | 1007.9 |
| 20260830173233 | 76 | 173 | 1.0 | 4.0 | 0.00 | 0.00 | 0.00 | 85 | 1007.9 |
| 20260830172724 | 76 | 173 | 1.0 | 5.0 | 0.00 | 0.00 | 0.00 | 86 | 1007.9 |
| 20260830172223 | 76 | 198 | 1.0 | 5.0 | 0.00 | 0.00 | 0.00 | 86 | 1008.0 |
| 20260830171721 | 76 | 11 | 1.0 | 5.0 | 0.00 | 0.00 | 0.00 | 86 | 1007.9 |
| 20260830171222 | 76 | 89 | 1.0 | 5.0 | 0.00 | 0.00 | 0.00 | 86 | 1007.8 |
| 20260830170717 | 76 | 18 | 1.0 | 5.0 | 0.00 | 0.00 | 0.00 | 86 | 1007.7 |